Location: Ashtead
(51.3000°N, 0.3000°W)
Time: 11:26:32
(UTC+00:00)

USA 281 - Pass Details

Date: 26 September 2023
Orbit: 1077 x 1081 km, 106.0° (Epoch: 19 November)

Event Time Altitude Azimuth Distance (km) Brightness Sun altitude
Rises 03:22:18 0° 25° (NNE) 3,893 7.0 -23.4°
Reaches altitude 10° 03:24:54 10° 20° (NNE) 2,934 6.2 -23.0°
Maximum altitude 03:31:11 50° 308° (NW) 1,358 3.5 -22.2°
Enters shadow 03:33:15 38° 262° (W) 1,606 3.6 -21.9°
